Regional Weather Roundup
Issued by NWS

Home | Current Version | Previous Version | Text Only | Print | Product List | Glossary Off
Versions: 1 2 3 4 5 6 7 8 9 10 11 12 13 14 15 16 17 18 19 20 21 22 23 24 25 26 27 28 29 30 31 32 33 34 35 36 37 38 39 40 41 42 43 44 45 46 47 48 49 50

687
ASUS45 KTFX 201010
RWRMT
MONTANA REGIONAL WEATHER ROUNDUP
NATIONAL WEATHER SERVICE GREAT FALLS MT
400 AM MDT SUN MAY 20 2018

NOTE: "FAIR" INDICATES FEW OR NO CLOUDS BELOW 12000 FEET WITH NO
SIGNIFICANT WEATHER AND/OR OBSTRUCTIONS TO VISIBILITY.

MTZ001>007-043-201100-
WEST OF THE DIVIDE

CITY           SKY/WX    TMP DP  RH WIND       PRES   REMARKS
KALISPELL      FAIR      48  42  80 NE9       29.98S
MISSOULA       FAIR      47  41  80 N3        29.99F
BUTTE          FAIR      42  36  79 N3        30.09S
MULLAN PASS    CLOUDY    45  40  82 S6        30.01F
ANACONDA         N/A     39  37  93 S6        30.06S
DEER LODGE       N/A     39  39 100 CALM      30.07S
HAMILTON         N/A     45  41  87 MISG      30.00F
RONAN            N/A     41  39  93 CALM      29.99S
$$

MTZ008-052>055-201100-
SOUTHWEST MONTANA

CITY           SKY/WX    TMP DP  RH WIND       PRES   REMARKS
BOZEMAN        FAIR      38  36  92 CALM      30.09S
DILLON         FAIR      39  37  92 S6        30.08S
ENNIS          CLEAR     34  34 100 CALM      30.12R
W YELLOWSTONE  FOG       39  39 100 CALM      30.12F VSB<1/4
$$

MTZ009-010-012-014-046-048-049-054-201100-
EAST SLOPES AND CENTRAL MONTANA

CITY           SKY/WX    TMP DP  RH WIND       PRES   REMARKS
CUT BANK       FOG       38  38 100 SE7       30.01F VSB 1/2
GREAT FALLS    FAIR      48  39  71 S14       30.05S
MALMSTROM AFB  FAIR      37  36  94 SE6       30.05F
HELENA         FAIR      41  40  96 SW3       30.06S
AUGUSTA        FAIR      40  41 100 W5        30.03F
BOWMANS CRNR   FAIR      40  40  99 S14       30.02F
CHOTEAU          N/A     43  41  93 CALM      30.04F
RAYNESFORD     FAIR      37  35  94 CALM      30.07S
ULM            FAIR      44  39  84 S7        30.05S
WHITE SULPHUR    N/A     43  37  81 CALM      30.09F
$$

MTZ011-013-016-021-045-047-050-051-201100-
NORTH CENTRAL MONTANA

CITY           SKY/WX    TMP DP  RH WIND       PRES   REMARKS
HAVRE          FAIR      45  41  86 E9        30.05F
LEWISTOWN      FAIR      38  37  97 CALM      30.08F
N BAR RANCH    CLOUDY    46  37  71 S13       30.13F
CHINOOK          N/A     46  43  87 E9        30.08F
DENTON         FAIR      42  39  88 SE6       30.04F
GEYSER         FAIR      37  35  94 SW6       30.06F WCI  32
GRASS RANGE    FAIR      43  40  89 CALM      30.07F
JUDITH GAP     CLOUDY    44  40  86 S10       30.10F
ROY            FAIR      43  40  89 S14       30.07F
STANFORD       FAIR      42  38  86 S7        30.06F
WINIFRED       FAIR      44  39  83 SE9       30.07F
$$

MTZ017>020-022>027-061-062-201100-
NORTHEAST MONTANA

CITY           SKY/WX    TMP DP  RH WIND       PRES   REMARKS
GLASGOW        FAIR      44  37  76 E12       30.15F
GLENDIVE       FAIR      45  34  65 SE5       30.23S
JORDAN           N/A     41  36  82 CALM      30.15F
MALTA          CLEAR     46  39  76 E7        30.10F
SIDNEY         FAIR      40  34  79 CALM      30.24S
WOLF POINT     FAIR      41  37  86 NE3       30.20F
PLENTYWOOD       N/A     46  28  49 CALM      30.21S
POPLAR           N/A     45  34  65 SE7       30.21F
SCOBEY           N/A     41  27  57 S2        30.17S
$$

MTZ028>42-056>058-201100-
SOUTHCENTRAL AND SOUTHEAST MONTANA

CITY           SKY/WX    TMP DP  RH WIND       PRES   REMARKS
BAKER          FAIR      34  33  96 SE5       30.25S
BILLINGS       FAIR      46  39  76 SE5       30.10F
LIVINGSTON     CLOUDY    45  43  93 E7        30.10F
MILES CITY     FAIR      44  39  82 SE7       30.18F
BIG TIMBER     CLOUDY    45  43  93 CALM      30.13S
FORSYTH          N/A     46  39  76 SE5       30.14F
HARLOWTON      CLOUDY    45  42  90 W3        30.11F
LAUREL           N/A     45  41  87 CALM      30.12S
$$

REGIONAL REPORTS...DAKOTAS

CITY           SKY/WX    TMP DP  RH WIND       PRES   REMARKS
WILLISTON      FAIR      33  30  88 CALM      30.24R
MINOT          FAIR      49  30  48 SW10      30.23S
DICKINSON      FAIR      34  30  85 S7        30.24R WCI  28
BEACH          FAIR      34  34 100 SE7       30.28S WCI  28
CROSBY         FAIR      36  34  93 S6        30.24S WCI  31
TIOGA          FAIR      36  32  87 CALM      30.26S
WATFORD CITY   FAIR      34  27  75 CALM      30.25R
BISMARCK       FAIR      39  37  92 CALM      30.27R
GRAND FORKS    FAIR      34  33  96 SW6       30.23R WCI  29
FARGO          FAIR      39  36  89 CALM      30.24R
BUFFALO SD       N/A     43  32  65 SE6       30.19S
RAPID CITY     FAIR      38  34  85 CALM      30.25S
$$

REGIONAL REPORTS...WYOMING/IDAHO/WASHINGTON

CITY           SKY/WX    TMP DP  RH WIND       PRES   REMARKS
GILLETTE       FAIR      40  35  83 S13       30.21S
SHERIDAN       FAIR      40  38  93 S5        30.13F
BUFFALO WY     FAIR      42  40  92 S18       30.16S
CODY           FAIR      37  35  92 W3        30.15S
YELLOWSTONE LA   N/A     32  30  92 CALM      30.20S
IDAHO FALLS    FAIR      43  42  97 NE5       30.01F
SALMON         FAIR      47  42  83 SE3       30.01S
BOISE          MOCLDY    63  45  51 E8        29.86F
SPOKANE        FAIR      52  47  83 NE3       29.92S
$$

REGIONAL REPORTS...ALBERTA

CITY           SKY/WX    TMP DP  RH WIND       PRES   REMARKS
CALGARY        PTCLDY    43  39  87 S12       29.94F
CARDSTON         N/A     39  37  93 S1          N/A
EDMONTON       CLEAR     50  32  50 S9        29.93F
FORT MCMURRAY  CLEAR     48  32  53 E9        29.91S
HIGH LEVEL     CLEAR     45  36  70 N2        29.80F
LETHBRIDGE     CLEAR     39  37  93 S6        29.97F
LLOYDMINSTER   CLEAR     45  36  70 S13       30.04S
MEDICINE HAT   CLEAR     46  39  76 CALM      30.03F
MILK RIVER       N/A     43  41  93 SE10        N/A
PEACE RIVER    CLEAR     41  32  70 NE5       29.80F
PINCHER CREEK    N/A     39  36  87 W12       29.97  WCI  32
WATERTON GATE    N/A     37  34  87 NE1         N/A
$$

REGIONAL REPORTS...SASKATCHEWAN

CITY           SKY/WX    TMP DP  RH WIND       PRES   REMARKS
CYPRESS HILLS    N/A     41  34  75 S16         N/A
ESTEVAN        CLEAR     37  27  65 SW2       30.23S
MOOSE JAW        N/A     39  28  65 S9          N/A
PRINCE ALBERT  CLEAR     48  32  53 SW8       30.12S
REGINA         CLEAR     41  30  65 E6        30.20F
ROCKGLEN         N/A     43  28  56 S9          N/A
SASKATOON      CLEAR     43  30  61 S6        30.15S
SWIFT CURRENT  CLEAR     41  30  65 S13       30.11F
VAL MARIE        N/A     43  32  65 SE5         N/A
$$




USA.gov is the U.S. government's official web portal to all federal, state and local government web resources and services.